Voltar ao catálogo

FENGYUN 1C DEB

AtivoSSO
NORAD 35116·DEBRIS·🇨🇳 China

Lançado May 10, 1999 de Taiyuan Satellite Launch Center

Loading…

Próximas Passagens (próximas 24 horas)

TLE

AtualizadoSource: Space-Track

Época: Sep 14, 2026, 08:38 UTC

1 35116U 99025DKU 26257.36005651  .00001141  00000-0  48681-3 0  9996
2 35116  98.6372 304.6179 0056615 325.8509  33.9034 14.26156537638872

Acompanhe FENGYUN 1C DEB em tempo real com AllMySat

Download on the App Store